www.pogodaiklimat.ru

Погода и климат >> Архив погоды >> Франция >> Ним аэропорт


ПОГОДА в Ним аэропорту

  • Прогноз погоды в Ним аэропорту
  • Монитор погоды в Ним аэропорту

АРХИВ ПОГОДЫ в Ним аэропорту

Время (UTC), дата Ветер
(напр.,м/с)
 
Видим.   Явления Облачность Т
(С)
Тd
(С)
f
(%)
Тe
(С)
Тes
(С)
Комфортность P
(гПа)
Po
(гПа)
Тmin
(С)
Tmax
(С)
R
(мм)
R24
(мм)
S
(см)
10 12.07 СЗ 2 н/о н/о +32.1 +11.3 28 +32 +32 жарко 1013.9 1006.9
11 12.07 З 2 н/о н/о +33.0 +11.5 27 +33 +33 жарко 1013.3 1006.4
12 12.07 З 2
{8}
н/о н/о +33.8 +12.2 27 +34 +34 очень
жарко
1012.9 1006.0 0
13 12.07 СЗ 1 н/о н/о +33.1 +12.7 29 +34 +34 очень
жарко
1012.3 1005.4
14 12.07 Ю 2 н/о н/о +34.9 +12.5 26 +35 +35 очень
жарко
1011.6 1004.7
15 12.07 ЮВ 2
{7}
н/о н/о +33.1 +14.2 32 +34 +34 очень
жарко
1011.2 1004.3 0
16 12.07 ЮВ 2 н/о н/о +35.0 +13.8 28 +36 +36 очень
жарко
1010.8 1003.9
17 12.07 В 1 н/о н/о +33.9 +13.9 30 +35 +35 очень
жарко
1010.8 1003.9
18 12.07 СВ 1
{5}
н/о н/о +32.8 +14.4 33 +34 +34 очень
жарко
1011.1 1004.2 +25.8 +35.9 0
19 12.07 СЗ 1 н/о н/о +31.4 +13.6 34 +33 +33 жарко 1011.7 1004.7
20 12.07 З 1 н/о н/о +29.6 +12.9 36 +31 +31 жарко 1012.5 1005.5
21 12.07 СЗ 2
{6}
н/о н/о +28.3 +12.6 38 +30 +30 жарко 1012.9 1005.9 0
22 12.07 СЗ 1 н/о н/о +26.9 +11.8 39 +28 +28 жарко 1013.4 1006.3
23 12.07 СЗ 2 н/о н/о +26.8 +11.7 39 +28 +28 жарко 1013.7 1006.6
00 13.07 СЗ 2
{7}
н/о н/о +25.5 +12.0 43 +27 +27 жарко 1013.9 1006.8 0
01 13.07 СЗ 2 н/о н/о +24.9 +12.5 46 +27 +27 жарко 1013.8 1006.7
02 13.07 СЗ 2 н/о н/о +24.6 +13.8 51 +27 +27 жарко 1013.6 1006.5
03 13.07 З 2
{7}
н/о н/о +23.8 +14.2 55 +26 +26 жарко 1013.3 1006.2 0
04 13.07 З 2 н/о н/о +23.3 +14.0 56 +27 +27 душно 1013.7 1006.5
05 13.07 З 2 н/о н/о +23.4 +14.1 56 +27 +27 душно 1014.3 1007.1
06 13.07 З 2
{7}
н/о н/о +24.8 +14.0 51 +27 +27 жарко 1014.6 1007.5 +23.0 +32.8 0
07 13.07 СЗ 3 н/о н/о +26.5 +12.9 43 +28 +28 жарко 1014.7 1007.6
08 13.07 СЗ 4 н/о н/о +27.4 +10.1 34 +28 +28 жарко 1014.8 1007.7
09 13.07 СЗ 3
{15}
н/о н/о +28.5 +10.2 32 +29 +29 жарко 1014.5 1007.4 0
10 13.07 СЗ 3 н/о н/о +29.6 +9.7 29 +29 +29 жарко 1014.3 1007.3
11 13.07 СЗ 3 н/о н/о +30.4 +10.4 29 +30 +30 жарко 1013.7 1006.7
12 13.07 СЗ 5
{13}
н/о н/о +31.8 +9.9 26 +31 +31 жарко 1013.3 1006.3 0
14 13.07 СЗ 3 н/о н/о +32.5 +8.7 23 +31 +31 жарко 1012.2 1005.2
15 13.07 С 3
{13}
н/о н/о +33.2 +7.2 20 +31 +31 жарко 1011.8 1004.9 0
17 13.07 С 3 н/о н/о +31.8 +8.7 24 +31 +31 жарко 1011.4 1004.4
18 13.07 С 3
{13}
н/о н/о +30.0 +8.4 26 +29 +29 жарко 1011.3 1004.3 +24.8 +33.6 0
19 13.07 С 3 н/о н/о +27.5 +7.9 29 +27 +27 жарко 1011.6 1004.5
20 13.07 С 3 н/о н/о +26.2 +8.2 32 +26 +26 жарко 1012.5 1005.4
21 13.07 СЗ 2
{8}
н/о н/о +25.3 +8.7 35 +26 +26 жарко 1012.7 1005.6 0
22 13.07 СЗ 2 н/о н/о +24.5 +8.8 37 +25 +25 комфорт 1012.6 1005.5
23 13.07 СЗ 2 н/о н/о +23.4 +9.0 40 +25 +25 комфорт 1012.1 1004.9
00 14.07 С 5
{10}
н/о н/о +23.2 +8.8 40 +25 +25 комфорт 1011.5 1004.3 0
01 14.07 СЗ 2 н/о н/о +22.6 +8.7 41 +24 +24 комфорт 1011.9 1004.7
02 14.07 СЗ 2 н/о н/о +22.3 +8.8 42 +24 +24 комфорт 1012.1 1004.9
03 14.07 СЗ 2
{7}
н/о н/о +22.0 +8.5 42 +23 +23 комфорт 1011.7 1004.5 0
04 14.07 СЗ 3 н/о н/о +21.6 +8.8 44 +23 +23 комфорт 1010.9 1003.7
05 14.07 СЗ 3 н/о н/о +22.1 +8.6 42 +23 +23 комфорт 1010.8 1003.6
06 14.07 СЗ 4
{12}
н/о н/о +23.1 +8.4 39 +24 +24 комфорт 1010.7 1003.5 +21.5 +29.9 0
07 14.07 СЗ 4 н/о н/о +24.4 +8.8 37 +25 +25 комфорт 1010.9 1003.8
08 14.07 С 3 н/о н/о +26.1 +8.6 33 +26 +26 жарко 1010.7 1003.6
09 14.07 СЗ 4
{12}
н/о н/о +27.1 +8.5 31 +27 +27 жарко 1010.4 1003.3 0
10 14.07 С 4 н/о н/о +28.8 +7.9 27 +28 +28 жарко 1010.0 1003.0
11 14.07 С 3 н/о н/о +30.0 +8.4 26 +29 +29 жарко 1009.6 1002.6
12 14.07 С 2
{12}
н/о н/о +31.4 +8.4 24 +30 +30 жарко 1009.0 1002.0 0
13 14.07 СЗ 3 н/о н/о +31.6 +7.3 22 +30 +30 жарко 1008.3 1001.4
14 14.07 С 3 н/о н/о +33.1 +8.5 22 +32 +32 жарко 1007.9 1001.0
15 14.07 С 3
{11}
н/о н/о +32.7 +8.9 23 +32 +32 жарко 1007.5 1000.6 0
16 14.07 С 3 н/о н/о +32.3 +9.2 24 +31 +31 жарко 1007.3 1000.4
17 14.07 С 4 н/о н/о +31.0 +8.1 24 +30 +30 жарко 1007.6 1000.6
18 14.07 С 3
{11}
н/о н/о +29.6 +8.1 26 +29 +29 жарко 1007.8 1000.8 +23.1 +33.3 0
19 14.07 С 3 н/о н/о +27.4 +8.3 30 +27 +27 жарко 1008.1 1001.1
20 14.07 С 2 н/о н/о +25.9 +8.4 33 +26 +26 жарко 1008.8 1001.7
21 14.07 СЗ 3
{10}
н/о н/о +25.5 +8.5 34 +26 +26 жарко 1009.5 1002.4 0
22 14.07 СЗ 2 н/о н/о +24.6 +8.9 37 +25 +25 комфорт 1009.8 1002.7
23 14.07 СЗ 2 н/о н/о +23.3 +10.0 43 +25 +25 комфорт 1010.1 1003.0
00 15.07 СЗ 2
{9}
н/о н/о +22.4 +10.8 48 +24 +24 комфорт 1010.0 1002.8 0
01 15.07 СЗ 3 н/о н/о +22.6 +9.4 43 +24 +24 комфорт 1009.9 1002.7
02 15.07 СЗ 3 н/о н/о +21.6 +8.8 44 +23 +23 комфорт 1010.2 1003.0
03 15.07 СЗ 2
{9}
н/о н/о +20.6 +8.6 46 +23 +23 комфорт 1010.0 1002.8 0
04 15.07 СЗ 3 н/о н/о +20.3 +8.3 46 +22 +22 комфорт 1009.9 1002.7
05 15.07 СЗ 2 н/о н/о +20.0 +8.3 47 +22 +22 комфорт 1009.8 1002.6
06 15.07 СЗ 3
{10}
н/о н/о +21.4 +8.3 43 +23 +23 комфорт 1009.8 1002.6 +19.7 +29.5
07 15.07 СЗ 5 н/о н/о +22.5 +8.6 41 +24 +24 комфорт 1009.7 1002.5
08 15.07 СЗ 3 н/о н/о +24.0 +8.4 37 +25 +25 комфорт 1009.8 1002.7
09 15.07 СЗ 5-17
{17}
н/о н/о +24.5 +8.8 37 +25 +25 комфорт 1009.5 1002.4 0
10 15.07 СЗ 4 н/о н/о +25.5 +8.9 35 +26 +26 жарко 1009.5 1002.4
11 15.07 СЗ 4 н/о н/о +26.3 +9.6 35 +27 +27 жарко 1009.1 1002.0
12 15.07 СЗ 5-15
{18}
н/о н/о +26.0 +9.3 35 +26 +26 жарко 1009.3 1002.2 0
13 15.07 СЗ 5 н/о н/о +27.6 +9.4 32 +28 +28 жарко 1008.9 1001.9
14 15.07 СЗ 4 н/о н/о +28.8 +10.0 31 +29 +29 жарко 1009.3 1002.3
15 15.07 СЗ 4-17
{17}
н/о н/о +28.9 +9.6 30 +29 +29 жарко 1009.5 1002.5 0
16 15.07 СЗ 4 н/о н/о +28.7 +9.9 31 +29 +29 жарко 1009.6 1002.6
17 15.07 СЗ 4 н/о н/о +29.0 +10.2 31 +29 +29 жарко 1010.0 1003.0
18 15.07 С 3
{16}
н/о н/о +28.2 +9.9 32 +28 +28 жарко 1010.5 1003.5 +21.5 +29.5 0
19 15.07 С 3 н/о н/о +26.5 +10.2 36 +27 +27 жарко 1011.4 1004.3
20 15.07 СЗ 2 н/о н/о +25.4 +10.0 38 +26 +26 жарко 1012.4 1005.3
21 15.07 СЗ 2
{7}
н/о н/о +24.6 +9.7 39 +25 +25 комфорт 1013.1 1006.0 0
22 15.07 СЗ 3 н/о н/о +24.0 +9.9 41 +25 +25 комфорт 1013.4 1006.2
23 15.07 СЗ 2 н/о н/о +23.6 +9.6 41 +25 +25 комфорт 1013.8 1006.6
00 16.07 СЗ 2
{8}
н/о н/о +23.0 +9.4 42 +25 +25 комфорт 1013.7 1006.5 0
01 16.07 СЗ 3 н/о н/о +23.0 +9.4 42 +25 +25 комфорт 1013.4 1006.2
02 16.07 СЗ 2 н/о н/о +22.1 +9.3 44 +24 +24 комфорт 1013.6 1006.4
03 16.07 СЗ 2
{8}
н/о н/о +21.4 +9.0 45 +23 +23 комфорт 1013.5 1006.3 0
04 16.07 СЗ 2 н/о н/о +20.5 +9.1 48 +23 +23 комфорт 1013.7 1006.5
05 16.07 СЗ 1 н/о н/о +20.9 +9.2 47 +24 +24 комфорт 1014.3 1007.1
06 16.07 СЗ 2
{6}
н/о н/о +23.0 +9.7 43 +25 +25 комфорт 1014.6 1007.4 +20.3 +28.2 0
07 16.07 СЗ 2 н/о н/о +24.7 +10.6 41 +26 +26 жарко 1014.8 1007.7
08 16.07 СЗ 2 н/о н/о +26.1 +11.1 39 +27 +27 жарко 1014.8 1007.7
09 16.07 С 3
{9}
н/о н/о +27.9 +11.4 36 +29 +29 жарко 1014.7 1007.6 0
10 16.07 С 2 н/о н/о +29.4 +11.4 33 +30 +30 жарко 1014.4 1007.4
11 16.07 С 2 н/о н/о +30.7 +11.1 30 +31 +31 жарко 1014.3 1007.3
12 16.07 СЗ 2
{9}
н/о н/о +31.0 +10.9 29 +31 +31 жарко 1014.0 1007.0 0
13 16.07 СЗ 1 н/о н/о +31.8 +10.5 27 +32 +32 жарко 1013.6 1006.6
14 16.07 С 1 н/о н/о +32.9 +10.3 25 +32 +32 жарко 1013.2 1006.3
15 16.07 Ю 3
{8}
н/о н/о +31.4 +12.2 31 +32 +32 жарко 1013.1 1006.1 0
16 16.07 Ю 2 н/о н/о +31.6 +12.4 31 +32 +32 жарко 1012.8 1005.8
17 16.07 Ю 3 н/о н/о +29.7 +12.6 35 +31 +31 жарко 1013.0 1006.0
18 16.07 Ю 2
{8}
н/о н/о +29.6 +12.5 35 +31 +31 жарко 1013.1 1006.1 +23.0 +33.8 0
19 16.07 Ю 2 н/о н/о +26.5 +14.3 47 +29 +29 жарко 1013.7 1006.6
20 16.07 ЮВ 1 н/о н/о +24.3 +15.5 58 +27 +27 жарко 1014.0 1006.9
21 16.07 С 1
{3}
н/о н/о +22.1 +14.7 63 +25 +25 комфорт 1014.5 1007.3 0
22 16.07 З 1 н/о н/о +21.1 +14.0 64 +24 +24 комфорт 1014.4 1007.2
23 16.07 СЗ 1 н/о н/о +20.4 +13.6 65 +24 +24 комфорт 1014.1 1006.9
00 17.07 СЗ 1
{3}
н/о н/о +19.5 +12.7 65 +22 +22 комфорт 1014.1 1006.8 0
01 17.07 СЗ 1 н/о н/о +18.3 +12.5 69 +20 +20 1013.9 1006.6
02 17.07 СЗ 1 н/о н/о +18.4 +12.2 67 +20 +20 1013.5 1006.2
03 17.07 З 1
{3}
н/о н/о +17.9 +11.9 68 +19 +19 1013.3 1006.0 0
04 17.07 СЗ 1 н/о н/о +17.8 +11.8 68 +19 +19 1013.5 1006.2
05 17.07 СЗ 1 н/о н/о +18.5 +11.8 65 +21 +21 комфорт 1013.5 1006.2
06 17.07 Ю 1
{2}
н/о н/о +22.6 +11.9 51 +25 +25 комфорт 1013.6 1006.4 +17.3 +29.6 0
07 17.07 СЗ 1 н/о н/о +25.6 +9.4 36 +26 +26 жарко 1013.8 1006.7
08 17.07 С 1 н/о н/о +28.5 +8.2 28 +28 +28 жарко 1013.7 1006.6
09 17.07 СЗ 1
{5}
н/о н/о +29.9 +9.4 28 +30 +30 жарко 1013.2 1006.2 0
10 17.07 В 1 н/о н/о +31.1 +9.3 26 +30 +30 жарко 1012.8 1005.8
11 17.07 С 1 н/о н/о +33.1 +9.2 23 +32 +32 жарко 1012.2 1005.3
12 17.07 ЮЗ 1
{8}
н/о н/о +32.8 +8.3 22 +31 +31 жарко 1011.6 1004.7 0
13 17.07 ЮВ 1 н/о н/о +34.7 +8.4 20 +33 +33 жарко 1011.0 1004.1
14 17.07 Ю 3 н/о н/о +34.2 +10.1 23 +33 +33 жарко 1010.7 1003.8
15 17.07 Ю 3
{11}
н/о н/о +32.1 +9.6 25 +31 +31 жарко 1010.5 1003.6 0
16 17.07 Ю 5
{9}
н/о н/о +32.2 +10.3 26 +32 +32 жарко 1010.2 1003.3
17 17.07 Ю 5
{9}
н/о н/о +31.9 +12.2 30 +32 +32 жарко 1009.9 1003.0
18 17.07 ЮВ 4
{8}
н/о н/о +30.5 +12.9 34 +32 +32 жарко 1010.1 1003.1 +22.7 +35.3 0
19 17.07 ЮВ 2
{5}
н/о н/о +26.9 +15.6 50 +30 +30 душно 1010.2 1003.2
20 17.07 В 1
{2}
н/о н/о +24.5 +15.7 58 +28 +28 душно 1010.6 1003.5
21 17.07 СЗ 1
{3}
н/о н/о +23.4 +15.2 60 +28 +28 душно 1011.0 1003.9 0
22 17.07 СЗ 1 н/о н/о +23.4 +14.9 59 +27 +27 душно 1011.0 1003.9
23 17.07 СЗ 2
{5}
н/о н/о +24.8 +13.0 48 +27 +27 жарко 1011.0 1003.9
00 18.07 СЗ 2
{5}
н/о н/о +24.8 +11.7 44 +26 +26 жарко 1010.9 1003.8 0
01 18.07 З 2 н/о н/о +24.1 +11.1 44 +25 +25 комфорт 1011.0 1003.9
02 18.07 З 1 н/о н/о +24.0 +10.6 43 +25 +25 комфорт 1011.2 1004.1
03 18.07 З 2
{7}
н/о н/о +23.8 +10.5 43 +25 +25 комфорт 1011.1 1004.0 0
04 18.07 СЗ 1
{6}
н/о н/о +22.3 +10.4 47 +24 +24 комфорт 1011.7 1004.5
05 18.07 З 3
{7}
н/о н/о +23.6 +9.9 42 +25 +25 комфорт 1012.0 1004.8
06 18.07 З 3
{9}
н/о н/о +24.7 +10.2 40 +26 +26 жарко 1012.3 1005.2 +22.3 +30.3 0
07 18.07 З 3 н/о н/о +26.6 +10.7 37 +27 +27 жарко 1012.7 1005.6
08 18.07 З 3 н/о н/о +28.4 +11.0 34 +29 +29 жарко 1012.5 1005.5
09 18.07 З 2
{10}
н/о н/о +30.0 +10.5 30 +30 +30 жарко 1012.4 1005.4 0
10 18.07 З 2 н/о н/о +31.3 +11.1 29 +31 +31 жарко 1012.3 1005.3
11 18.07 З 2 н/о н/о +31.9 +10.0 26 +31 +31 жарко 1011.9 1004.9
12 18.07 З 2
{10}
н/о н/о +32.3 +9.8 25 +32 +32 жарко 1011.5 1004.6 0
13 18.07 З 2 н/о н/о +32.8 +9.6 24 +32 +32 жарко 1011.2 1004.3
14 18.07 СЗ 2 н/о н/о +33.5 +8.9 22 +32 +32 жарко 1011.0 1004.1
15 18.07 СЗ 1
{7}
н/о н/о +34.0 +9.3 22 +33 +33 жарко 1010.7 1003.8 0
16 18.07 ЮЗ 2 н/о н/о +34.5 +9.0 21 +33 +33 жарко 1010.4 1003.5
17 18.07 З 2 н/о н/о +33.7 +9.0 22 +32 +32 жарко 1010.3 1003.4
18 18.07 З 3
{10}
н/о н/о +31.4 +7.8 23 +30 +30 жарко 1011.0 1004.0 +24.8 +34.7 0
19 18.07 З 2 н/о н/о +29.1 +8.2 27 +29 +29 жарко 1011.6 1004.6
20 18.07 З 2 н/о н/о +27.4 +9.2 32 +28 +28 жарко 1012.5 1005.4
21 18.07 З 2
{8}
н/о н/о +26.3 +9.6 35 +27 +27 жарко 1013.0 1005.9 0
22 18.07 СЗ 2 н/о н/о +25.0 +10.1 39 +26 +26 жарко 1013.7 1006.6
23 18.07 СЗ 2 н/о н/о +24.0 +10.3 42 +25 +25 комфорт 1014.2 1007.0
00 19.07 СЗ 2
{7}
н/о н/о +23.2 +10.3 44 +25 +25 комфорт 1014.3 1007.1 0
01 19.07 СЗ 2 н/о н/о +22.4 +9.9 45 +24 +24 комфорт 1014.6 1007.4
02 19.07 СЗ 2 н/о н/о +22.0 +9.5 45 +24 +24 комфорт 1014.7 1007.5
03 19.07 СЗ 2
{6}
н/о н/о +21.7 +9.9 47 +23 +23 комфорт 1014.9 1007.7 0
05 19.07 СЗ 2 н/о н/о +21.5 +10.0 48 +23 +23 комфорт 1015.3 1008.1
06 19.07 СЗ 2
{7}
н/о н/о +23.3 +10.4 44 +25 +25 комфорт 1015.5 1008.3 +21.0 +31.4 0
07 19.07 СЗ 3 н/о н/о +25.6 +10.6 39 +27 +27 жарко 1015.7 1008.6
08 19.07 СЗ 2 н/о н/о +26.9 +11.0 37 +28 +28 жарко 1015.9 1008.8
09 19.07 СЗ 1
{8}
н/о н/о +29.1 +10.2 31 +29 +29 жарко 1016.0 1008.9 0
10 19.07 З 1 н/о н/о +30.7 +10.6 29 +31 +31 жарко 1015.4 1008.4

 

Местоположение метеостанции Ним аэропорт (Франция): широта 43.87 долгота 4.40 высота над уровнем моря 62 м.

В архиве по умолчанию представлена погода в Ним аэропорту за последнюю неделю. Архивные данные за месяц целиком и за предыдущие месяцы, начиная с января 2011 года, Вы можете получить, выбрав интересующий диапазон дат из раскрывающегося списка и нажав кнопку "Ввод!".


*Определитесь, кто Вы:
робот инопланетянин человек

Внимание! Время в таблицах - всемирное. Для получения местного времени необходимо прибавить поправку, которая равна 1 ч.

Смотрите также архив погоды в соседних городах и на ближайших метеорологических станциях:

Погода в Ниме (Франция) (13 км)
Погода в Авиньон (Франция) (40 км)
Погода в Оранже (Франция) (45 км)
Погода в Монпелье (Франция) (47 км)
Погода в Карпентрасе (Франция) (57 км)
Погода в Истре (Франция) (57 км)
Погода в Салон-де-Провансе (Франция) (64 км)
Погода в Мон Эгуале (Франция) (71 км)
Погода в Обене (Франция) (73 км)
Погода на Ла Куроне (Франция) (80 км)

Пояснения к столбцам:

Ветер - указаны скорость ветра в м/с - средняя за 10 мин, порывы в срок и между сроками (в фигурных скобках) и направление, откуда дует ветер: С - северный, СВ - северо-восточный, В - восточный, ЮВ - юго-восточный, Ю - южный, ЮЗ - юго-западный, З - западный, СЗ - северо-западный.
Видимость - горизонтальная дальность видимости в метрах или километрах. При видимости от 1 до 10 км при отсутствии осадков обычно наблюдается дымка, при ухудшении видимости до 1 км и менее - туман. В сухую погоду видимость может ухудшаться дымом, пылью или мглою.
Явления - указаны атмосферные явления, наблюдавшиеся в срок или в последний час перед сроком; фигурными скобками обозначены явления, наблюдавшиеся между сроками (за 1-3 часа до срока); квадратными скобками обозначены град или гололедные отложения с указанием их диаметра в мм.
Облачность - указаны через наклонную черту общая и нижняя облачность в баллах и высота нижней границы облаков в метрах; квадратными скобками обозначены формы облаков: Ci - перистые, Cs - перисто-слоистые, Cc - перисто-кучевые, Ac - высококучевые, As - высокослоистые, Sc - слоисто-кучевые, Ns - слоисто-дождевые, Cu - кучевые, Cb - кучево-дождевые. Подробнее классификацию облаков см. в Атласе облаков (PDF).
T - Температура воздуха - температура, измеренная на высоте 2 м над землей.
Td - Температура точки росы - температура, при понижении до которой содержащийся в воздухе водяной пар достигнет насыщения.
f - Относительная влажность воздуха - влажноcть воздуха, измеренная на высоте 2 м над землей.
Te - Эффективная температура - температура, которую ощущает одетый по сезону человек в тени. Характеристика душности погоды. При расчете учитывается влияние влажности воздуха и скорости ветра на теплоощущения человека.
Tes - Эффективная температура на солнце - температура, которую ощущает человек, с поправкой на солнечный нагрев. Характеристика знойности погоды. Зависит от высоты солнца над горизонтом, облачности и скорости ветра. Ночью, в пасмурную погоду, а также при ветре 12 м/с и более поправка равна нулю.
P - Атмосферное давление - приведенное к уровню моря атмосферное давление.
Po - Атмосферное давление - измеренное на уровне метеостанции атмосферное давление.
Tmin - Минимальная температура - минимум температуры воздуха на высоте 2 м над землей.
Tmax - Максимальная температура - максимум температуры воздуха на высоте 2 м над землей.
R - Количество осадков - Количество выпавших осадков за период времени, мм. При наведении курсора мыши на число - период времени, за который выпало указанное количество осадков.
R24 - Количество осадков - Количество выпавших осадков за 24 часа, мм.
S - Снежный покров - Высота снежного покрова, см. При наведении курсора мыши на число - состояние снежного покрова и степень покрытия местности в баллах.